Location: Breitenfeld
(46.8500°N, 15.6333°E)
Time: 23:39:50
(UTC+00:00)

STARLINK-1236 - Pass Details

Date: 09 April 2020
Orbit: 549 x 550 km, 53.0° (Epoch: 24 May)

Event Time Altitude Azimuth Distance (km) Brightness Sun altitude
Rises 19:31:24 0° 299° (WNW) 2,724 8.8 -18.5°
Reaches altitude 10° 19:33:38 10° 300° (WNW) 1,828 7.5 -18.8°
Maximum altitude 19:37:48 86° 30° (NNE) 557 3.5 -19.4°
Enters shadow 19:38:43 53° 114° (ESE) 678 3.6 -19.5°
